| time (UTC) | temp C | wind direction | speed KPH | gust KPH | rain 1hr cm | rain 24hr cm | rain mn cm | humidity % | barometer mb |
| 20260506164141 | 16 | 166 | 0.0 | 4.8 | 0.00 | 1.96 | 0.00 | 86 | 994.5 |
| 20260506155641 | 18 | 170 | 0.0 | 6.4 | 0.03 | 1.96 | 1.96 | 81 | 994.4 |
| 20260506154143 | 17 | 189 | 0.0 | 6.4 | 0.03 | 1.96 | 1.96 | 81 | 994.3 |
| 20260506152642 | 17 | 200 | 3.2 | 9.7 | 0.18 | 1.96 | 1.96 | 82 | 994.4 |
| 20260506151142 | 17 | 135 | 0.0 | 1.6 | 0.20 | 1.96 | 1.96 | 82 | 994.2 |
| 20260506145643 | 17 | 181 | 0.0 | 4.8 | 0.18 | 1.93 | 1.93 | 83 | 994.4 |
| 20260506144142 | 17 | 135 | 0.0 | 0.0 | 0.18 | 1.93 | 1.93 | 79 | 994.4 |
| 20260506142643 | 18 | 135 | 0.0 | 3.2 | 0.03 | 1.78 | 1.78 | 68 | 994.5 |
| 20260506141140 | 20 | 135 | 0.0 | 1.6 | 0.00 | 1.75 | 1.75 | 62 | 994.5 |
| 20260506135642 | 21 | 0 | 0.0 | 0.0 | 0.00 | 1.75 | 1.75 | 58 | 994.4 |
| 20260506134142 | 22 | 135 | 1.6 | 4.8 | 0.00 | 1.75 | 1.75 | 56 | 994.7 |
| 20260506132642 | 24 | 144 | 0.0 | 3.2 | 0.00 | 1.75 | 1.75 | 51 | 994.6 |
| 20260506131142 | 23 | 140 | 0.0 | 4.8 | 0.00 | 1.75 | 1.75 | 58 | 994.8 |
| 20260506125644 | 21 | 141 | 0.0 | 4.8 | 0.00 | 1.75 | 1.75 | 64 | 994.8 |
| 20260506124142 | 20 | 140 | 0.0 | 1.6 | 0.00 | 1.78 | 1.75 | 65 | 995.1 |
| 20260506122640 | 21 | 143 | 0.0 | 6.4 | 0.00 | 1.78 | 1.75 | 63 | 995.0 |
| 20260506121141 | 21 | 135 | 0.0 | 4.8 | 0.00 | 1.78 | 1.75 | 66 | 995.0 |
| 20260506115642 | 21 | 135 | 1.6 | 4.8 | 0.00 | 1.78 | 1.75 | 65 | 995.0 |
| 20260506114142 | 21 | 151 | 0.0 | 4.8 | 0.00 | 1.78 | 1.75 | 68 | 994.7 |
| 20260506111141 | 19 | 137 | 0.0 | 4.8 | 0.00 | 1.78 | 1.75 | 72 | 994.9 |
| 20260506105642 | 19 | 181 | 0.0 | 3.2 | 0.00 | 1.78 | 1.75 | 74 | 995.1 |
| 20260506104141 | 20 | 137 | 0.0 | 4.8 | 0.00 | 1.78 | 1.75 | 71 | 995.2 |
| 20260506102642 | 21 | 147 | 0.0 | 4.8 | 0.00 | 1.78 | 1.75 | 72 | 995.2 |
| 20260506101140 | 17 | 135 | 0.0 | 3.2 | 0.00 | 1.78 | 1.75 | 81 | 995.1 |
| 20260506095642 | 18 | 135 | 0.0 | 1.6 | 0.00 | 1.78 | 1.75 | 77 | 995.1 |
| 20260506094143 | 20 | 135 | 0.0 | 4.8 | 0.00 | 1.78 | 1.75 | 75 | 994.9 |
| 20260506092640 | 20 | 173 | 0.0 | 3.2 | 0.00 | 1.78 | 1.75 | 74 | 994.9 |
| 20260506091142 | 21 | 148 | 0.0 | 4.8 | 0.00 | 1.78 | 1.75 | 77 | 994.9 |
| 20260506085641 | 17 | 136 | 0.0 | 1.6 | 0.00 | 1.78 | 1.75 | 88 | 994.9 |
| 20260506081142 | 14 | 225 | 0.0 | 0.0 | 0.00 | 1.78 | 1.75 | 99 | 994.7 |
| 20260506072641 | 13 | 215 | 0.0 | 4.8 | 0.05 | 1.78 | 1.75 | 99 | 994.7 |
| 20260506061140 | 12 | 0 | 0.0 | 0.0 | 0.08 | 1.70 | 1.68 | 97 | 994.8 |
| 20260506051140 | 11 | 171 | 0.0 | 3.2 | 0.00 | 1.60 | 1.57 | 98 | 994.6 |
| 20260506044144 | 11 | 135 | 0.0 | 0.0 | 0.00 | 1.60 | 1.57 | 98 | 994.6 |
| 20260506042640 | 11 | 0 | 0.0 | 0.0 | 0.00 | 1.63 | 1.57 | 98 | 994.8 |
| 20260506041142 | 11 | 0 | 0.0 | 0.0 | 0.00 | 1.68 | 1.57 | 98 | 994.7 |
| 20260506035642 | 11 | 0 | 0.0 | 0.0 | 0.00 | 1.73 | 1.57 | 98 | 994.6 |
| 20260506034141 | 11 | 0 | 0.0 | 0.0 | 0.00 | 1.75 | 1.57 | 98 | 994.5 |
| 20260506032643 | 11 | 0 | 0.0 | 0.0 | 0.00 | 1.75 | 1.57 | 98 | 994.5 |
| 20260506031141 | 11 | 140 | 0.0 | 0.0 | 0.00 | 1.75 | 1.57 | 98 | 994.6 |
| 20260506025641 | 11 | 155 | 0.0 | 1.6 | 0.00 | 1.75 | 1.57 | 98 | 994.6 |
| 20260506022641 | 11 | 134 | 0.0 | 4.8 | 0.03 | 1.75 | 1.57 | 98 | 994.5 |
| 20260506021140 | 11 | 139 | 0.0 | 4.8 | 0.05 | 1.75 | 1.57 | 98 | 994.6 |
| 20260506012641 | 12 | 154 | 0.0 | 6.4 | 0.18 | 1.75 | 1.55 | 97 | 994.4 |
| 20260506011141 | 12 | 167 | 1.6 | 6.4 | 0.25 | 1.73 | 1.52 | 97 | 994.7 |
| 20260506005643 | 12 | 136 | 0.0 | 3.2 | 0.36 | 1.68 | 1.45 | 97 | 995.0 |
| 20260506004141 | 12 | 139 | 0.0 | 3.2 | 0.58 | 1.63 | 1.42 | 97 | 994.8 |
| 20260506002642 | 12 | 156 | 0.0 | 1.6 | 0.58 | 1.57 | 1.37 | 99 | 994.9 |
| 20260506001141 | 13 | 139 | 0.0 | 3.2 | 0.51 | 1.45 | 1.24 | 99 | 994.8 |
| 20260505235640 | 13 | 135 | 0.0 | 4.8 | 0.38 | 1.27 | 1.07 | 99 | 995.1 |
| 20260505234143 | 13 | 135 | 0.0 | 3.2 | 0.18 | 1.04 | 0.84 | 99 | 995.0 |
| 20260505232639 | 13 | 162 | 0.0 | 3.2 | 0.20 | 0.97 | 0.76 | 99 | 995.1 |
| 20260505224143 | 13 | 168 | 0.0 | 4.8 | 0.28 | 0.86 | 0.64 | 99 | 995.3 |
| 20260505222640 | 13 | 188 | 0.0 | 6.4 | 0.23 | 0.76 | 0.56 | 99 | 995.4 |
| 20260505221141 | 13 | 248 | 0.0 | 9.7 | 0.23 | 0.71 | 0.51 | 99 | 995.3 |
| 20260505214140 | 14 | 193 | 0.0 | 9.7 | 0.20 | 0.56 | 0.36 | 99 | 995.6 |
| 20260505211139 | 14 | 198 | 0.0 | 9.7 | 0.20 | 0.46 | 0.25 | 97 | 995.9 |
| 20260505205641 | 14 | 183 | 4.8 | 11.3 | 0.18 | 0.41 | 0.20 | 97 | 996.0 |
| 20260505204140 | 14 | 182 | 0.0 | 6.4 | 0.13 | 0.36 | 0.13 | 96 | 996.4 |
| 20260505202639 | 15 | 154 | 1.6 | 4.8 | 0.10 | 0.30 | 0.10 | 95 | 996.3 |
| 20260505195640 | 15 | 135 | 1.6 | 4.8 | 0.00 | 0.20 | 0.00 | 91 | 996.1 |
| 20260505194140 | 15 | 139 | 0.0 | 4.8 | 0.00 | 0.20 | 0.00 | 89 | 995.9 |
| 20260505192640 | 15 | 148 | 3.2 | 9.7 | 0.00 | 0.23 | 0.00 | 88 | 995.6 |
| 20260505191139 | 16 | 220 | 3.2 | 12.9 | 0.00 | 0.25 | 0.00 | 86 | 995.5 |
| 20260505185639 | 16 | 274 | 0.0 | 22.5 | 0.00 | 0.25 | 0.00 | 86 | 995.3 |
| 20260505184140 | 16 | 261 | 6.4 | 16.1 | 0.00 | 0.25 | 0.00 | 84 | 995.6 |
| 20260505182639 | 17 | 174 | 4.8 | 6.4 | 0.00 | 0.25 | 0.00 | 81 | 995.6 |
| 20260505175639 | 17 | 184 | 1.6 | 4.8 | 0.00 | 0.25 | 0.00 | 76 | 996.0 |
| 20260505165639 | 18 | 182 | 0.0 | 4.8 | 0.00 | 0.25 | 0.00 | 76 | 996.5 |